Hourly Data Report for October 08, 2016

All times are specified in Local Standard Time (LST). Add 1 hour to adjust for Daylight Saving Time where and when it is observed.

PETAWAWA AWOS 2
ONTARIO

45°57'00.000" N
77°19'00.000" W
130.10 m
6106396
71625
YWA

Download Data

Hourly Data (October 2016)
Hourly Data Report for October 8, 2016
Temp Definition
°C
Dew Point Temp Definition
°C
Rel Hum Definition
%
Wind Dir Definition
10's deg

Wind Spd Definition
km/h
Visibility Definition
km
Stn Press Definition
kPa
Hmdx Definition


Wind Chill Definition


Weather Definition


TIME
00:00 15.3 14.2 93 12 7 14.5 99.87     LegendNANA
01:00 15.1 13.9 92 12 13 14.5 99.80     LegendNANA
02:00 14.8 14.1 96 14 7 14.5 99.79     LegendNANA
03:00 14.7 13.9 95 12 9 14.5 99.74     LegendNANA
04:00 14.9 14.3 96 18 6 14.5 99.75     LegendNANA
05:00 15.1 14.0 93 14 4 14.5 99.78     LegendNANA
06:00 14.3 14.1 99 16 6 8.0 99.81     Rain
07:00 14.2 14.2 100 26 7 6.4 99.81     Moderate Rain
08:00 13.0 11.8 92 28 15 9.7 99.97     Rain
09:00 11.3 9.9 91 28 17 14.5 100.03     LegendNANA
10:00 10.9 6.7 75 28 13 14.5 100.02     LegendNANA
11:00 13.2 5.4 59 29 13 14.5 99.94     LegendNANA
12:00 14.4 5.4 55 30 19 14.5 99.92     LegendNANA
13:00 14.9 4.1 48 30 19 14.5 99.90     LegendNANA
14:00 14.9 5.4 53 29 9 14.5 99.84     LegendNANA
15:00 15.5 5.5 51 28 15 14.5 99.84     LegendNANA
16:00 14.6 6.4 58 30 24 14.5 99.88     LegendNANA
17:00 13.2 6.4 63 30 11 14.5 99.94     LegendNANA
18:00 12.4 6.5 67 29 9 14.5 100.05     LegendNANA
19:00 11.0 6.0 71 28 7 14.5 100.08     LegendNANA
20:00 9.8 5.3 74 27 7 14.5 100.18     LegendNANA
21:00 8.8 5.3 79 27 7 14.5 100.22     LegendNANA
22:00 7.6 5.4 86 35 7 14.5 100.27     LegendNANA
23:00 6.8 5.7 93 32 4 14.5 100.29     LegendNANA

Notes on Data Quality.

Legend

  • E = Estimated
  • M = Missing
  • NA = Not Available
  • ‡ = Partner data that is not subject to review by the National Climate Archives
Date modified: